Skip Page Navigation
NASA JPL Caltech
NASA Logo - Jet Propulsion Laboratory + View the NASA Portal
+ Center for Near-Earth Object Studies
JPL Home Earth Solar System Stars & Galaxies Technology
JPL Solar System Dynamics
BODIES ORBITS EPHEMERIDES TOOLS PHYSICAL DATA DISCOVERY FAQ SITE MAP
JPL Small-Body Database Browser
Search: [ help ]  
150850 (2001 SB92)
Classification: Main-belt Asteroid          SPK-ID: 2150850
Ephemeris | Orbit Diagram | Orbital Elements | Mission Design | Physical Parameters | Discovery Circumstances ]

[ show orbit diagram ]
Orbital Elements at Epoch 2459200.5 (2020-Dec-17.0) TDB
Reference: JPL 20 (heliocentric ecliptic J2000)
 Element Value Uncertainty (1-sigma)   Units 
e .08504723892570271 3.5168e-08  
a 2.431339212470681 1.1483e-08 au
q 2.224560525558257 9.0897e-08 au
i 6.386277145298931 4.7018e-06 deg
node 339.9218011370327 3.3912e-05 deg
peri 116.8260195046977 4.4734e-05 deg
M 293.3416595334836 2.9327e-05 deg
tp 2459456.900433393793
(2021-Aug-30.40043339)
0.00011322 TDB
period 1384.735284073439
3.79
9.8103e-06
2.686e-08
d
yr
n .2599774874956589 1.8418e-09 deg/d
Q 2.638117899383104 1.246e-08 au
  Orbit Determination Parameters
   # obs. used (total)      443  
   data-arc span      7073 days (19.36 yr)  
   first obs. used      2001-08-25  
   last obs. used      2021-01-05  
   planetary ephem.      DE441  
   SB-pert. ephem.      SB441-N16  
   condition code      0  
   norm. resid. RMS      .60672  
   source      ORB  
   producer      Otto Matic  
   solution date      2021-Apr-13 19:20:18  

Additional Information
 Earth MOID = 1.24969 au 
 Jupiter MOID = 2.46952 au 
 T_jup = 3.494 
[ show covariance matrix ]

Ephemeris | Orbit Diagram | Orbital Elements | Mission Design | Physical Parameters | Discovery Circumstances ]

Physical Parameter Table
Parameter Symbol Value Units Sigma Reference Notes
absolute magnitude H 16.3   n/a MPO436762  

150850 (2001 SB92)          Discovered 2001-Sep-20 by LINEAR at Socorro
Reference: 20070303/Numbers.arcLast Updated: 2007-03-07
Ephemeris | Orbit Diagram | Orbital Elements | Mission Design | Physical Parameters | Discovery Circumstances ]
ABOUT SSD CREDITS/AWARDS PRIVACY/COPYRIGHT GLOSSARY LINKS
FirstGov 2021-Apr-14 20:05 UT
(server date/time)  
NASA Home Page
Site Manager:   Ryan S. Park
Webmaster  Alan B. Chamberlin